Weather History for Tullahoma, TN

Change the Weather History Date:

Thursday, May 2, 2013

  Actual Average Record
Temperature  
Mean Temperature 66 °F -  
Max Temperature 73 °F 74 °F 73 °F (2013)
Min Temperature 59 °F 50 °F 37 °F (2014)
Cooling Degree Days 1    
Growing Degree Days 16 (Base 50)    
Moisture  
Dew Point 53 °F    
Average Humidity 64    
Maximum Humidity 72    
Minimum Humidity 47    
Precipitation  
Precipitation 0.00 in - - ()
Sea Level Pressure  
Sea Level Pressure 30.14 in    
Wind  
Wind Speed 7 mph (SE)    
Max Wind Speed 15 mph    
Max Gust Speed -    
Visibility 10 miles    
Events      
Averages and records for this station are not official NWS values.
T = Trace of Precipitation, MM = Missing Value Source: NWS Daily Summary

Daily Weather History Graph

Daily Weather History Graph

Search for Another Location

Airport:

Trip Planner

Search our weather history database for the weather conditions in past years. The results will help you decide how hot, cold, wet, or windy it might be!

Date:

Astronomy

May. 02, 2013 Rise Set
Actual Time 5:52 AM CDT 7:32 PM CDT
Civil Twilight 5:24 AM CDT 7:59 PM CDT
Nautical Twilight 4:52 AM CDT 8:32 PM CDT
Astronomical Twilight 4:17 AM CDT 9:07 PM CDT
Moon 1:23 AM CDT (5/2) 12:36 PM CDT (5/2)
Length of Visible Light 14h 34m
Length of Day
13h 39m
Waning Gibbous, 47% of the Moon is Illuminated
May 2
Waning Gibbous
May 9
New
May 17
First Quarter
May 24
Full
May 31
Last Quarter

Hourly Weather History & Observations

Time (CDT) Temp. Dew Point Humidity Pressure Visibility Wind Dir Wind Speed Gust Speed Precip Events Conditions
12:15 AM 62.6 °F 53.6 °F 72% 30.15 in 10.0 mi SSE 5.8 mph - N/A   Clear
12:35 AM 62.6 °F 51.8 °F 68% 30.14 in 10.0 mi SSE 6.9 mph - N/A   Clear
12:55 AM 62.6 °F 51.8 °F 68% 30.14 in 10.0 mi SSE 8.1 mph - N/A   Clear
1:15 AM 62.6 °F 51.8 °F 68% 30.13 in 10.0 mi SSE 9.2 mph - N/A   Clear
1:35 AM 60.8 °F 51.8 °F 72% 30.13 in 10.0 mi SE 8.1 mph - N/A   Clear
1:55 AM 60.8 °F 51.8 °F 72% 30.13 in 10.0 mi SE 6.9 mph - N/A   Clear
2:15 AM 60.8 °F 51.8 °F 72% 30.13 in 10.0 mi SE 5.8 mph - N/A   Clear
2:35 AM 60.8 °F 51.8 °F 72% 30.12 in 10.0 mi SE 8.1 mph - N/A   Clear
2:55 AM 60.8 °F 50.0 °F 68% 30.13 in 10.0 mi SE 6.9 mph - N/A   Clear
3:15 AM 60.8 °F 50.0 °F 68% 30.13 in 10.0 mi SSE 6.9 mph - N/A   Clear
3:35 AM 60.8 °F 50.0 °F 68% 30.13 in 10.0 mi SSE 8.1 mph - N/A   Clear
3:55 AM 60.8 °F 50.0 °F 68% 30.14 in 10.0 mi SSE 6.9 mph - N/A   Clear
4:15 AM 60.8 °F 50.0 °F 68% 30.14 in 10.0 mi SSE 8.1 mph - N/A   Clear
4:35 AM 60.8 °F 50.0 °F 68% 30.13 in 10.0 mi ESE 5.8 mph - N/A   Clear
4:55 AM 59.0 °F 50.0 °F 72% 30.13 in 10.0 mi ESE 4.6 mph - N/A   Clear
5:15 AM 59.0 °F 50.0 °F 72% 30.13 in 10.0 mi ESE 4.6 mph - N/A   Clear
5:35 AM 59.0 °F 50.0 °F 72% 30.13 in 10.0 mi SE 6.9 mph - N/A   Clear
5:55 AM 59.0 °F 50.0 °F 72% 30.13 in 10.0 mi SSE 6.9 mph - N/A   Clear
6:15 AM 60.8 °F 50.0 °F 68% 30.13 in 10.0 mi SE 6.9 mph - N/A   Clear
6:35 AM 60.8 °F 50.0 °F 68% 30.14 in 10.0 mi SSE 4.6 mph - N/A   Clear
6:55 AM 60.8 °F 51.8 °F 72% 30.14 in 10.0 mi SE 5.8 mph - N/A   Clear
7:15 AM 62.6 °F 51.8 °F 68% 30.15 in 10.0 mi SSE 5.8 mph - N/A   Clear
7:35 AM 64.4 °F 51.8 °F 64% 30.16 in 10.0 mi SE 8.1 mph - N/A   Clear
7:55 AM 64.4 °F 51.8 °F 64% 30.16 in 10.0 mi SSE 10.4 mph - N/A   Clear
8:15 AM 66.2 °F 51.8 °F 60% 30.17 in 10.0 mi SE 15.0 mph - N/A   Clear
8:35 AM 66.2 °F 53.6 °F 64% 30.17 in 10.0 mi SSE 10.4 mph - N/A   Clear
8:55 AM 66.2 °F 53.6 °F 64% 30.17 in 10.0 mi SE 12.7 mph - N/A   Clear
9:15 AM 64.4 °F 53.6 °F 68% 30.17 in 10.0 mi SE 10.4 mph - N/A   Clear
9:35 AM 66.2 °F 53.6 °F 64% 30.18 in 10.0 mi SE 9.2 mph - N/A   Clear
9:55 AM 68.0 °F 55.4 °F 64% 30.18 in 10.0 mi SSE 13.8 mph - N/A   Partly Cloudy
10:15 AM 66.2 °F 55.4 °F 68% 30.18 in 10.0 mi South 10.4 mph - N/A   Clear
10:35 AM 66.2 °F 55.4 °F 68% 30.19 in 10.0 mi SSE 9.2 mph - N/A   Partly Cloudy
10:55 AM 68.0 °F 55.4 °F 64% 30.19 in 10.0 mi SE 6.9 mph - N/A   Mostly Cloudy
11:15 AM 68.0 °F 55.4 °F 64% 30.19 in 10.0 mi Variable 6.9 mph - N/A   Mostly Cloudy
11:35 AM 69.8 °F 55.4 °F 60% 30.19 in 10.0 mi SE 11.5 mph - N/A   Scattered Clouds
11:55 AM 69.8 °F 57.2 °F 64% 30.18 in 10.0 mi SSE 9.2 mph - N/A   Partly Cloudy
12:15 PM 69.8 °F 55.4 °F 60% 30.18 in 10.0 mi ESE 8.1 mph - N/A   Mostly Cloudy
12:35 PM 69.8 °F 55.4 °F 60% 30.17 in 10.0 mi SE 8.1 mph - N/A   Overcast
12:55 PM 69.8 °F 55.4 °F 60% 30.17 in 10.0 mi Variable 4.6 mph - N/A   Overcast
1:15 PM 69.8 °F 55.4 °F 60% 30.17 in 10.0 mi SSE 6.9 mph - N/A   Overcast
1:35 PM 69.8 °F 55.4 °F 60% 30.17 in 10.0 mi South 5.8 mph - N/A   Overcast
1:55 PM 71.6 °F 57.2 °F 60% 30.16 in 10.0 mi South 5.8 mph - N/A   Mostly Cloudy
2:15 PM 71.6 °F 57.2 °F 60% 30.15 in 10.0 mi East 6.9 mph - N/A   Mostly Cloudy
2:35 PM 71.6 °F 55.4 °F 57% 30.15 in 10.0 mi ESE 4.6 mph - N/A   Mostly Cloudy
2:55 PM 71.6 °F 55.4 °F 57% 30.14 in 10.0 mi East 8.1 mph - N/A   Mostly Cloudy
3:15 PM 73.4 °F 55.4 °F 53% 30.13 in 10.0 mi East 6.9 mph - N/A   Overcast
3:35 PM 73.4 °F 55.4 °F 53% 30.12 in 10.0 mi ESE 8.1 mph - N/A   Mostly Cloudy
3:55 PM 73.4 °F 55.4 °F 53% 30.12 in 10.0 mi SE 6.9 mph - N/A   Mostly Cloudy
4:15 PM 73.4 °F 55.4 °F 53% 30.12 in 10.0 mi SE 9.2 mph - N/A   Partly Cloudy
4:35 PM 73.4 °F 51.8 °F 47% 30.11 in 10.0 mi SSE 10.4 mph - N/A   Clear
4:55 PM 71.6 °F 53.6 °F 53% 30.11 in 10.0 mi South 8.1 mph - N/A   Clear
5:15 PM 71.6 °F 53.6 °F 53% 30.10 in 10.0 mi SE 9.2 mph - N/A   Clear
5:35 PM 71.6 °F 53.6 °F 53% 30.10 in 10.0 mi SE 9.2 mph - N/A   Clear
5:55 PM 71.6 °F 53.6 °F 53% 30.10 in 10.0 mi SSE 8.1 mph - N/A   Clear
6:15 PM 71.6 °F 53.6 °F 53% 30.10 in 10.0 mi SSE 6.9 mph - N/A   Clear
6:35 PM 69.8 °F 53.6 °F 56% 30.09 in 10.0 mi South 4.6 mph - N/A   Clear
6:55 PM 69.8 °F 53.6 °F 56% 30.10 in 10.0 mi South 8.1 mph - N/A   Scattered Clouds
7:15 PM 68.0 °F 53.6 °F 60% 30.11 in 10.0 mi South 5.8 mph - N/A   Mostly Cloudy
7:35 PM 66.2 °F 53.6 °F 64% 30.11 in 10.0 mi South 5.8 mph - N/A   Overcast
7:55 PM 66.2 °F 53.6 °F 64% 30.11 in 10.0 mi South 5.8 mph - N/A   Mostly Cloudy
8:15 PM 66.2 °F 53.6 °F 64% 30.12 in 10.0 mi South 4.6 mph - N/A   Partly Cloudy
8:35 PM 64.4 °F 53.6 °F 68% 30.12 in 10.0 mi SSE 6.9 mph - N/A   Mostly Cloudy
8:55 PM 64.4 °F 53.6 °F 68% 30.13 in 10.0 mi SSE 6.9 mph - N/A   Mostly Cloudy
9:15 PM 64.4 °F 53.6 °F 68% 30.12 in 10.0 mi SSE 5.8 mph - N/A   Scattered Clouds
9:35 PM 64.4 °F 53.6 °F 68% 30.12 in 10.0 mi SSE 5.8 mph - N/A   Partly Cloudy
9:55 PM 64.4 °F 53.6 °F 68% 30.12 in 10.0 mi SE 4.6 mph - N/A   Clear
10:15 PM 64.4 °F 53.6 °F 68% 30.11 in 10.0 mi SSE 4.6 mph - N/A   Partly Cloudy
10:35 PM 64.4 °F 53.6 °F 68% 30.11 in 10.0 mi SE 5.8 mph - N/A   Clear
10:55 PM 62.6 °F 53.6 °F 72% 30.11 in 10.0 mi SE 6.9 mph - N/A   Clear
11:15 PM 62.6 °F 53.6 °F 72% 30.10 in 10.0 mi SE 8.1 mph - N/A   Clear
11:35 PM 62.6 °F 53.6 °F 72% 30.10 in 10.0 mi SSE 6.9 mph - N/A   Scattered Clouds
11:55 PM 62.6 °F 53.6 °F 72% 30.10 in 10.0 mi SSE 5.8 mph - N/A   Mostly Cloudy